Weather in Armavir

Russia / Krasnodar Krai     44°59′51″N   41°07′46″E
temp.,
°C
wind,
m/s
gust,
m/s
humid.,
%
clouds,
%
prec.,
mm/h
press.,
hPa
HPBL,
m
27 january, wed
wed2700:00+5se71473100 0.0 1018215
03:00+4se6974100 0.0 1016142
06:00+4se61069100 0.0 1015142
09:00+4se61165100 0.0 1013192
12:00+7se61158100 0.0 1012267
15:00+8ese61157100 0.0 1009336
18:00+4se7137799 0.0 1008275
21:00+3se61083100 0.0 1008203
28 january, thu
thu2800:00+3se4682100 0.0 100788
03:00+3ese5677100 0.0 1005101
06:00+3se5874100 0.0 1005133
09:00+4ese2371100 0.0 100559
12:00+9wnw235698 0.0 1005248
15:00+9nw7116799 0.0 1006779
18:00+6wnw31096100 0.1 1008721
21:00+5wnw81293100 1.3 1009584
29 january, fri
fri2900:00+3wnw499388 0.8 1011462
03:00+3sw239394 1.4 1013126
06:00+1s119252 0.0 101322
09:00+2s229160 0.1 1013136
12:00+3sse3593100 0.1 1013304
15:00+5se4674100 0.1 1012657
18:00+3sw2384100 0.2 1013139
21:00+1w3995100 3.1 1014636
30 january, sat
sat3000:00+2sw4890100 0.2 1015382
03:00+1sse6109397 0.2 1014254
06:00+1se5108699 0.0 1014240
09:00+2se598392 0.0 1013271
12:00+5se576951 0.0 1012349
15:00+7se466570 0.0 1010453
18:00+4se5117965 0.0 1010287
21:00+3se7138165 0.0 1009287
31 january, sun
sun3100:00+2se5980100 0.0 1008198
03:00+1se4783100 0.0 1008119
06:00+2se466784 0.0 1008103
09:00+3ese225692 0.0 101043
12:00+8sse125095 0.0 1011303
15:00+9ssw015385 0.0 1011615
18:00+6ese236643 0.0 101325
21:00+5se477271 0.0 1014145